When you browse on this site, cookies collect data to enhance your experience and personalize the content and advertising you see.
Visit our Privacy Policy to learn more. By continuing to use the site, you agree to this use of cookies and data.
  • En España
  • Lista de países
  • Para 7 días
  • Temperatura del agua
  • Mapa Satelital
  • El tiempo en el mapa
  • Informadores
  • user-avatar
    Iniciar sesión

    Tiempo cada hora Bangalore

    Hoy, 22 Febrero, Viernes

    Tiempo Temperatura Precipitaciones Viento Presión Humedad
    00:00 +23°C° 0 mm 4 mps 687 mmHg 49%
    01:00 +22°C° 0 mm 3 mps 686 mmHg 51%
    02:00 +21°C° 0 mm 3 mps 686 mmHg 54%
    03:00 +21°C° 0 mm 3 mps 686 mmHg 54%
    04:00 +20°C° 0 mm 3 mps 686 mmHg 54%
    05:00 +20°C° 0 mm 3 mps 686 mmHg 54%
    06:00 +21°C° 0 mm 3 mps 686 mmHg 47%
    07:00 +22°C° 0 mm 4 mps 687 mmHg 41%
    08:00 +25°C° 0 mm 4 mps 688 mmHg 34%
    09:00 +27°C° 0 mm 5 mps 688 mmHg 29%
    10:00 +29°C° 0 mm 6 mps 688 mmHg 25%
    11:00 +32°C° 0 mm 7 mps 688 mmHg 20%
    12:00 +32°C° 0 mm 7 mps 687 mmHg 19%
    13:00 +33°C° 0 mm 7 mps 687 mmHg 17%
    14:00 +34°C° 0 mm 8 mps 686 mmHg 16%
    15:00 +33°C° 0 mm 7 mps 686 mmHg 18%
    16:00 +32°C° 0 mm 7 mps 685 mmHg 20%
    17:00 +32°C° 0 mm 6 mps 685 mmHg 22%
    18:00 +29°C° 0 mm 6 mps 685 mmHg 25%
    19:00 +28°C° 0 mm 5 mps 686 mmHg 28%
    20:00 +26°C° 0 mm 4 mps 686 mmHg 31%
    21:00 +25°C° 0 mm 4 mps 686 mmHg 34%
    22:00 +24°C° 0 mm 3 mps 686 mmHg 36%
    23:00 +22°C° 0 mm 3 mps 686 mmHg 38%

    Mañana, 23 Febrero, Sábado

    Tiempo Temperatura Precipitaciones Viento Presión Humedad
    00:00 +22°C° 0 mm 3 mps 686 mmHg 39%
    01:00 +21°C° 0 mm 3 mps 685 mmHg 40%
    02:00 +20°C° 0 mm 3 mps 684 mmHg 40%
    03:00 +20°C° 0 mm 2 mps 684 mmHg 40%
    04:00 +20°C° 0 mm 2 mps 684 mmHg 39%
    05:00 +19°C° 0 mm 2 mps 684 mmHg 38%
    06:00 +21°C° 0 mm 2 mps 684 mmHg 34%
    07:00 +22°C° 0 mm 3 mps 685 mmHg 30%
    08:00 +25°C° 0 mm 3 mps 686 mmHg 27%
    09:00 +27°C° 0 mm 4 mps 686 mmHg 23%
    10:00 +30°C° 0 mm 5 mps 686 mmHg 19%
    11:00 +33°C° 0 mm 6 mps 687 mmHg 15%
    12:00 +34°C° 0 mm 6 mps 686 mmHg 15%
    13:00 +35°C° 0 mm 6 mps 685 mmHg 14%
    14:00 +35°C° 0 mm 6 mps 684 mmHg 13%
    15:00 +35°C° 0 mm 6 mps 684 mmHg 14%
    16:00 +34°C° 0 mm 6 mps 684 mmHg 15%
    17:00 +33°C° 0 mm 5 mps 684 mmHg 16%
    18:00 +32°C° 0 mm 5 mps 684 mmHg 19%
    19:00 +29°C° 0 mm 4 mps 684 mmHg 22%
    20:00 +27°C° 0 mm 4 mps 685 mmHg 25%
    21:00 +26°C° 0 mm 4 mps 685 mmHg 29%
    22:00 +25°C° 0 mm 4 mps 685 mmHg 32%
    23:00 +24°C° 0 mm 3 mps 685 mmHg 36%

    Pasado mañana, 24 Febrero, Domingo

    Tiempo Temperatura Precipitaciones Viento Presión Humedad
    00:00 +24°C° 0 mm 3 mps 684 mmHg 39%
    01:00 +22°C° 0 mm 3 mps 684 mmHg 42%
    02:00 +21°C° 0 mm 2 mps 683 mmHg 45%
    03:00 +21°C° 0 mm 2 mps 683 mmHg 45%
    04:00 +21°C° 0 mm 2 mps 683 mmHg 46%
    05:00 +20°C° 0 mm 2 mps 683 mmHg 47%
    06:00 +23°C° 0 mm 2 mps 683 mmHg 42%
    07:00 +24°C° 0 mm 2 mps 684 mmHg 37%
    08:00 +25°C° 0 mm 2 mps 685 mmHg 32%
    09:00 +28°C° 0 mm 3 mps 685 mmHg 26%
    10:00 +30°C° 0 mm 4 mps 686 mmHg 20%
    11:00 +33°C° 0 mm 4 mps 686 mmHg 15%
    12:00 +34°C° 0 mm 4 mps 685 mmHg 14%
    13:00 +35°C° 0 mm 4 mps 684 mmHg 13%
    14:00 +36°C° 0 mm 4 mps 684 mmHg 12%
    15:00 +35°C° 0 mm 4 mps 683 mmHg 12%
    16:00 +35°C° 0 mm 4 mps 683 mmHg 13%
    17:00 +34°C° 0 mm 4 mps 683 mmHg 14%
    18:00 +32°C° 0 mm 4 mps 684 mmHg 18%
    19:00 +29°C° 0 mm 4 mps 684 mmHg 22%
    20:00 +28°C° 0 mm 4 mps 685 mmHg 26%
    21:00 +27°C° 0 mm 4 mps 685 mmHg 31%
    22:00 +26°C° 0 mm 4 mps 685 mmHg 35%
    23:00 +25°C° 0 mm 4 mps 685 mmHg 40%

    25 Febrero, Lunes

    Tiempo Temperatura Precipitaciones Viento Presión Humedad
    00:00 +23°C° 0 mm 4 mps 684 mmHg 44%
    01:00 +22°C° 0 mm 3 mps 683 mmHg 48%
    02:00 +22°C° 0 mm 3 mps 683 mmHg 51%
    03:00 +21°C° 0 mm 3 mps 683 mmHg 53%
    04:00 +21°C° 0 mm 2 mps 683 mmHg 54%
    05:00 +20°C° 0 mm 2 mps 682 mmHg 56%
    06:00 +21°C° 0 mm 2 mps 683 mmHg 50%
    07:00 +24°C° 0 mm 2 mps 684 mmHg 45%
    08:00 +25°C° 0 mm 2 mps 685 mmHg 39%
    09:00 +27°C° 0 mm 2 mps 685 mmHg 31%
    10:00 +29°C° 0 mm 2 mps 685 mmHg 23%
    11:00 +33°C° 0 mm 3 mps 686 mmHg 15%
    12:00 +34°C° 0 mm 2 mps 685 mmHg 13%
    13:00 +35°C° 0 mm 2 mps 684 mmHg 12%
    14:00 +35°C° 0 mm 2 mps 683 mmHg 10%
    15:00 +35°C° 0 mm 2 mps 683 mmHg 10%
    16:00 +35°C° 0 mm 2 mps 683 mmHg 11%
    17:00 +35°C° 0 mm 2 mps 683 mmHg 11%
    18:00 +32°C° 0 mm 2 mps 683 mmHg 13%
    19:00 +30°C° 0 mm 3 mps 684 mmHg 15%
    20:00 +28°C° 0 mm 3 mps 684 mmHg 16%
    21:00 +27°C° 0 mm 3 mps 684 mmHg 20%
    22:00 +26°C° 0 mm 3 mps 684 mmHg 23%
    23:00 +26°C° 0 mm 3 mps 684 mmHg 27%

    26 Febrero, Martes

    Tiempo Temperatura Precipitaciones Viento Presión Humedad
    00:00 +25°C° 0 mm 3 mps 684 mmHg 32%
    01:00 +24°C° 0 mm 2 mps 683 mmHg 37%
    02:00 +23°C° 0 mm 2 mps 682 mmHg 43%
    03:00 +23°C° 0 mm 2 mps 682 mmHg 55%
    04:00 +21°C° 0 mm 2 mps 682 mmHg 67%
    05:00 +21°C° 0 mm 2 mps 682 mmHg 79%
    06:00 +23°C° 0 mm 2 mps 683 mmHg 75%
    07:00 +24°C° 0 mm 2 mps 684 mmHg 71%
    08:00 +25°C° 0 mm 3 mps 685 mmHg 67%
    09:00 +27°C° 0 mm 3 mps 685 mmHg 55%
    10:00 +29°C° 0 mm 3 mps 685 mmHg 43%
    11:00 +31°C° 0 mm 3 mps 685 mmHg 31%
    12:00 +33°C° 0 mm 3 mps 684 mmHg 27%
    13:00 +34°C° 0 mm 3 mps 683 mmHg 24%
    14:00 +35°C° 0 mm 2 mps 683 mmHg 20%
    15:00 +35°C° 0 mm 2 mps 682 mmHg 20%
    16:00 +35°C° 0 mm 2 mps 682 mmHg 20%
    17:00 +35°C° 0 mm 2 mps 682 mmHg 20%
    18:00 +32°C° 0 mm 2 mps 682 mmHg 22%
    19:00 +31°C° 0 mm 2 mps 683 mmHg 24%
    20:00 +30°C° 0 mm 2 mps 683 mmHg 26%
    21:00 +29°C° 0 mm 3 mps 683 mmHg 28%
    22:00 +28°C° 0 mm 3 mps 683 mmHg 30%
    23:00 +28°C° 0 mm 3 mps 683 mmHg 32%

    27 Febrero, Miércoles

    Tiempo Temperatura Precipitaciones Viento Presión Humedad
    00:00 +27°C° 0 mm 3 mps 683 mmHg 39%
    01:00 +26°C° 0 mm 3 mps 682 mmHg 47%
    02:00 +25°C° 0 mm 2 mps 682 mmHg 54%
    03:00 +24°C° 0 mm 2 mps 682 mmHg 58%
    04:00 +23°C° 0 mm 2 mps 682 mmHg 62%
    05:00 +23°C° 0 mm 2 mps 682 mmHg 67%
    06:00 +24°C° 0 mm 2 mps 683 mmHg 61%
    07:00 +24°C° 0 mm 1 mps 684 mmHg 56%
    08:00 +25°C° 0 mm 1 mps 685 mmHg 51%
    09:00 +27°C° 0 mm 1 mps 685 mmHg 42%
    10:00 +29°C° 0 mm 2 mps 685 mmHg 32%
    11:00 +31°C° 0 mm 2 mps 685 mmHg 23%
    12:00 +32°C° 0 mm 2 mps 684 mmHg 22%
    13:00 +34°C° 0 mm 2 mps 684 mmHg 21%
    14:00 +34°C° 0 mm 2 mps 683 mmHg 20%
    15:00 +34°C° 0 mm 2 mps 683 mmHg 20%
    16:00 +34°C° 0 mm 2 mps 683 mmHg 19%
    17:00 +34°C° 0 mm 2 mps 683 mmHg 19%
    18:00 +32°C° 0 mm 2 mps 683 mmHg 20%
    19:00 +31°C° 0 mm 1 mps 683 mmHg 21%
    20:00 +29°C° 0 mm 1 mps 684 mmHg 22%
    21:00 +29°C° 0 mm 1 mps 684 mmHg 23%
    22:00 +28°C° 0 mm 1 mps 684 mmHg 24%
    23:00 +27°C° 0 mm 1 mps 684 mmHg 25%
    Mostrar más